Weather History for Worthington, MN

Change the Weather History Date:

Monday, November 4, 2013

  Actual Average Record
Temperature  
Mean Temperature 39 °F -  
Max Temperature 48 °F 44 °F 73 °F (1978)
Min Temperature 30 °F 29 °F -3 °F (1991)
Degree Days  
Heating Degree Days 26    
Moisture  
Dew Point 30 °F    
Average Humidity 64    
Maximum Humidity 81    
Minimum Humidity 50    
Precipitation  
Precipitation 0.01 in - - ()
Sea Level Pressure  
Sea Level Pressure 29.93 in    
Wind  
Wind Speed 13 mph (WSW)    
Max Wind Speed 17 mph    
Max Gust Speed 26 mph    
Visibility 10 miles    
Events      
Averages and records for this station are not official NWS values.
T = Trace of Precipitation, MM = Missing Value Source: NWS Daily Summary

Daily Weather History Graph

Daily Weather History Graph

Search for Another Location

Airport:

Trip Planner

Search our weather history database for the weather conditions in past years. The results will help you decide how hot, cold, wet, or windy it might be!

Date:

Astronomy

Nov. 04, 2013 Rise Set
Actual Time 7:02 AM CST 5:08 PM CST
Civil Twilight 6:32 AM CST 5:38 PM CST
Nautical Twilight 5:58 AM CST 6:12 PM CST
Astronomical Twilight 5:24 AM CST 6:46 PM CST
Moon 8:15 AM CST (11/4) 6:12 PM CST (11/4)
Length of Visible Light 11h 06m
Length of Day
10h 06m
New Moon, 2% of the Moon is Illuminated
Nov 4
New Moon
Nov 9
First Quarter
Nov 17
Full
Nov 25
Last Quarter
Dec 2
New

Hourly Weather History & Observations

Time (CST) Temp. Windchill Dew Point Humidity Pressure Visibility Wind Dir Wind Speed Gust Speed Precip Events Conditions
12:15 AM 46.4 °F 40.1 °F 32.0 °F 57% 29.77 in 10.0 mi SSE 15.0 mph 19.6 mph N/A   Clear
12:35 AM 46.4 °F 39.8 °F 32.0 °F 57% 29.77 in 10.0 mi SSE 16.1 mph - N/A   Clear
12:55 AM 46.4 °F 39.8 °F 32.0 °F 57% 29.77 in 10.0 mi South 16.1 mph - N/A   Clear
1:15 AM 46.4 °F 40.1 °F 32.0 °F 57% 29.77 in 10.0 mi SSE 15.0 mph 23.0 mph N/A   Clear
1:35 AM 44.6 °F 38.1 °F 32.0 °F 61% 29.77 in 10.0 mi South 13.8 mph 23.0 mph N/A   Clear
1:55 AM 44.6 °F 37.8 °F 32.0 °F 61% 29.77 in 10.0 mi South 15.0 mph - N/A   Clear
2:15 AM 44.6 °F 38.1 °F 32.0 °F 61% 29.77 in 10.0 mi South 13.8 mph - N/A   Clear
2:35 AM 44.6 °F 37.4 °F 32.0 °F 61% 29.76 in 10.0 mi South 16.1 mph 21.9 mph N/A   Clear
2:55 AM 44.6 °F 37.8 °F 32.0 °F 61% 29.76 in 10.0 mi South 15.0 mph - N/A   Clear
3:15 AM 44.6 °F 37.8 °F 32.0 °F 61% 29.77 in 10.0 mi SSE 15.0 mph - N/A   Clear
3:35 AM 44.6 °F 37.8 °F 32.0 °F 61% 29.77 in 10.0 mi South 15.0 mph - N/A   Clear
3:55 AM 44.6 °F 38.1 °F 32.0 °F 61% 29.76 in 10.0 mi South 13.8 mph - N/A   Clear
4:15 AM 42.8 °F 35.8 °F 32.0 °F 66% 29.77 in 10.0 mi South 13.8 mph - N/A   Clear
4:35 AM 44.6 °F 38.1 °F 32.0 °F 61% 29.77 in 10.0 mi South 13.8 mph - N/A   Clear
4:55 AM 42.8 °F 36.2 °F 32.0 °F 66% 29.77 in 10.0 mi South 12.7 mph - N/A   Clear
5:15 AM 42.8 °F 36.2 °F 32.0 °F 66% 29.77 in 10.0 mi South 12.7 mph - N/A   Clear
5:35 AM 42.8 °F 36.2 °F 32.0 °F 66% 29.77 in 10.0 mi South 12.7 mph - N/A   Clear
5:55 AM 42.8 °F 37.0 °F 33.8 °F 70% 29.77 in 10.0 mi South 10.4 mph - N/A   Partly Cloudy
6:15 AM 42.8 °F 37.0 °F 33.8 °F 70% 29.77 in 10.0 mi South 10.4 mph - N/A   Scattered Clouds
6:35 AM 42.8 °F 37.5 °F 33.8 °F 70% 29.78 in 10.0 mi South 9.2 mph - N/A   Mostly Cloudy
6:55 AM 42.8 °F 36.6 °F 33.8 °F 70% 29.80 in 10.0 mi SSW 11.5 mph - N/A   Overcast
7:15 AM 44.6 °F 37.4 °F 35.6 °F 71% 29.80 in 10.0 mi SSW 16.1 mph - N/A   Overcast
7:35 AM 42.8 °F 35.4 °F 35.6 °F 76% 29.80 in 7.0 mi SSW 15.0 mph - N/A   Mostly Cloudy
7:55 AM 42.8 °F 36.2 °F 35.6 °F 76% 29.80 in 10.0 mi SSW 12.7 mph - N/A   Mostly Cloudy
8:15 AM 42.8 °F 36.2 °F 35.6 °F 76% 29.81 in 10.0 mi SSW 12.7 mph - N/A   Overcast
8:35 AM 42.8 °F 37.0 °F 35.6 °F 76% 29.81 in 10.0 mi SSW 10.4 mph - N/A   Overcast
8:55 AM 42.8 °F 35.8 °F 35.6 °F 76% 29.84 in 10.0 mi SW 13.8 mph - N/A   Overcast
9:15 AM 42.8 °F 35.1 °F 33.8 °F 70% 29.85 in 10.0 mi West 16.1 mph - N/A   Overcast
9:35 AM 39.2 °F 30.2 °F 33.8 °F 81% 29.87 in 10.0 mi West 17.3 mph - N/A   Overcast
9:55 AM 39.2 °F 30.5 °F 32.0 °F 75% 29.88 in 10.0 mi WNW 16.1 mph - 0.01 in   Overcast
10:15 AM 41.0 °F 33.1 °F 33.8 °F 76% 29.89 in 10.0 mi NW 15.0 mph 20.7 mph N/A   Overcast
10:35 AM 42.8 °F 34.8 °F 33.8 °F 70% 29.91 in 10.0 mi NW 17.3 mph 26.5 mph N/A   Overcast
10:55 AM 42.8 °F 34.8 °F 33.8 °F 70% 29.93 in 10.0 mi NW 17.3 mph 26.5 mph N/A   Overcast
11:15 AM 44.6 °F 37.2 °F 35.6 °F 71% 29.93 in 10.0 mi NNW 17.3 mph - N/A   Overcast
11:35 AM 44.6 °F 38.8 °F 33.8 °F 66% 29.92 in 10.0 mi NW 11.5 mph - N/A   Overcast
11:55 AM 44.6 °F 39.7 °F 33.8 °F 66% 29.93 in 10.0 mi NW 9.2 mph - N/A   Overcast
12:15 PM 44.6 °F 38.8 °F 33.8 °F 66% 29.93 in 10.0 mi NW 11.5 mph - N/A   Overcast
12:35 PM 46.4 °F 41.1 °F 33.8 °F 62% 29.93 in 10.0 mi WNW 11.5 mph - N/A   Overcast
12:55 PM 46.4 °F 40.4 °F 33.8 °F 62% 29.94 in 10.0 mi WNW 13.8 mph - N/A   Overcast
1:15 PM 46.4 °F 41.1 °F 35.6 °F 66% 29.94 in 10.0 mi WNW 11.5 mph - N/A   Overcast
1:35 PM 46.4 °F 41.5 °F 35.6 °F 66% 29.95 in 10.0 mi West 10.4 mph - N/A   Overcast
1:55 PM 48.2 °F - 33.8 °F 58% 29.95 in 10.0 mi WNW 12.7 mph 18.4 mph N/A   Mostly Cloudy
2:15 PM 48.2 °F - 32.0 °F 54% 29.96 in 10.0 mi West 15.0 mph - N/A   Partly Cloudy
2:35 PM 48.2 °F - 32.0 °F 54% 29.97 in 10.0 mi West 16.1 mph - N/A   Clear
2:55 PM 48.2 °F - 30.2 °F 50% 29.97 in 10.0 mi WNW 12.7 mph - N/A   Clear
3:15 PM 48.2 °F - 30.2 °F 50% 29.99 in 10.0 mi West 12.7 mph - N/A   Clear
3:35 PM 46.4 °F 40.7 °F 28.4 °F 50% 30.00 in 10.0 mi West 12.7 mph 18.4 mph N/A   Clear
3:55 PM 46.4 °F 40.7 °F 28.4 °F 50% 30.01 in 10.0 mi West 12.7 mph - N/A   Clear
4:15 PM 46.4 °F 40.4 °F 30.2 °F 53% 30.00 in 10.0 mi WNW 13.8 mph - N/A   Clear
4:35 PM 44.6 °F 40.2 °F 28.4 °F 53% 30.00 in 10.0 mi WNW 8.1 mph - N/A   Clear
4:55 PM 44.6 °F 41.4 °F 28.4 °F 53% 30.01 in 10.0 mi West 5.8 mph - N/A   Clear
5:15 PM 42.8 °F 40.1 °F 28.4 °F 57% 30.03 in 10.0 mi WSW 4.6 mph - N/A   Clear
5:35 PM 39.2 °F 35.0 °F 28.4 °F 65% 30.03 in 10.0 mi West 5.8 mph - N/A   Clear
5:55 PM 39.2 °F 35.9 °F 28.4 °F 65% 30.04 in 10.0 mi WSW 4.6 mph - N/A   Clear
6:15 PM 41.0 °F 36.4 °F 26.6 °F 57% 30.06 in 10.0 mi West 6.9 mph - N/A   Clear
6:35 PM 37.4 °F 32.1 °F 24.8 °F 60% 30.07 in 10.0 mi WSW 6.9 mph - N/A   Clear
6:55 PM 35.6 °F 30.7 °F 24.8 °F 65% 30.08 in 10.0 mi West 5.8 mph - N/A   Clear
7:15 PM 33.8 °F 29.6 °F 24.8 °F 70% 30.08 in 10.0 mi WSW 4.6 mph - N/A   Clear
7:35 PM 33.8 °F - 24.8 °F 70% 30.08 in 10.0 mi Calm Calm - N/A   Clear
7:55 PM 35.6 °F 29.9 °F 24.8 °F 65% 30.10 in 10.0 mi WNW 6.9 mph - N/A   Clear
8:15 PM 33.8 °F 28.6 °F 21.2 °F 60% 30.10 in 10.0 mi West 5.8 mph - N/A   Clear
8:35 PM 33.8 °F 28.6 °F 23.0 °F 65% 30.11 in 10.0 mi WSW 5.8 mph - N/A   Clear
8:55 PM 33.8 °F 27.0 °F 23.0 °F 65% 30.12 in 10.0 mi West 8.1 mph - N/A   Clear
9:15 PM 32.0 °F 28.7 °F 21.2 °F 64% 30.12 in 10.0 mi WSW 3.5 mph - N/A   Clear
9:35 PM 32.0 °F 25.6 °F 21.2 °F 64% 30.14 in 10.0 mi West 6.9 mph - N/A   Clear
9:55 PM 30.2 °F 24.3 °F 21.2 °F 69% 30.15 in 10.0 mi SW 5.8 mph - N/A   Clear
10:15 PM 33.8 °F 28.6 °F 23.0 °F 65% 30.15 in 10.0 mi SSW 5.8 mph - N/A   Clear
10:35 PM 33.8 °F 28.6 °F 24.8 °F 70% 30.16 in 10.0 mi WSW 5.8 mph - N/A   Clear
10:55 PM 32.0 °F 26.4 °F 21.2 °F 64% 30.16 in 10.0 mi West 5.8 mph - N/A   Clear
11:15 PM 32.0 °F 26.4 °F 21.2 °F 64% 30.16 in 10.0 mi WSW 5.8 mph - N/A   Clear
11:35 PM 30.2 °F 24.3 °F 21.2 °F 69% 30.16 in 10.0 mi West 5.8 mph - N/A   Clear
11:55 PM 30.2 °F 24.3 °F 21.2 °F 69% 30.16 in 10.0 mi WNW 5.8 mph - N/A   Clear